Flag for Belgium Weather past 2 weeks in Brussels, Belgium

Now
64 °F

Passing clouds.


Feels Like: 64 °F
Forecast: 62 / 82 °F
Wind: 6 mph from Southeast

Location: Brussels National Airport

Current Time: Aug 5, 2015 at 9:26:30 AM

Latest Report: Aug 5, 2015 at 8:50 AM


Visibility: N/A

Pressure: 30.07 "Hg

Humidity: 56%

Dew point: 48 °F

Location of BrusselsLocation

Historic Weather in Brussels — Graph

°F

Brussels temperature yesterday

Maximum temperature yesterday: 72 °F (at 5:20 PM)
Minimum temperature yesterday: 59 °F (at 10:50 PM)
Average temperature yesterday: 65 °F

Past Weeks' High & Low Weather Summary

 TemperatureHumidityPressure
High90 °F (Aug 3, 3:50 PM)100% (Jul 25, 1:20 PM)30.15 "Hg (Jul 25, 1:20 PM)
Low43 °F (Jul 31, 4:50 AM)22% (Aug 3, 4:20 PM)29.50 "Hg (Jul 25, 3:50 AM)
Average63 °F66%29.92 "Hg
* Reported Jul 21 7:20 AM — Aug 5 7:50 AM, Brussels, Weather by CustomWeather, © 2015

Note: Actual official high and low records may vary slightly from our data, if they occured in-between our weather recording intervals... More about our weather records

Advertising

Brussels weather history for previous 24 hours

 ConditionsComfort  
Time TempWeatherWind HumidityBarometerVisibility
7:50 AM
Wed, Aug 5
59 °FSunny.5 mph68%30.07 "Hg10 mi
7:20 AM57 °FSunny.2 mph72%30.07 "Hg10 mi
6:50 AM55 °FClear.5 mph77%30.07 "Hg10 mi
6:20 AM54 °FClear.5 mph77%30.07 "Hg10 mi
5:50 AM54 °FClear.6 mph77%30.07 "Hg10 mi
4:50 AM55 °FClear.6 mph72%30.07 "Hg10 mi
4:20 AM55 °FClear.6 mph72%30.07 "Hg10 mi
3:50 AM55 °FClear.6 mph72%30.07 "Hg10 mi
3:20 AM55 °FClear.6 mph77%30.07 "Hg10 mi
2:50 AM55 °FClear.7 mph72%30.07 "Hg10 mi
2:20 AM55 °FClear.6 mph72%30.07 "Hg10 mi
1:50 AM55 °FClear.6 mph72%30.07 "Hg10 mi
1:20 AM55 °FClear.6 mph72%30.07 "Hg10 mi
12:50 AM55 °FClear.5 mph67%30.07 "Hg10 mi
12:20 AM57 °FClear.6 mph63%30.07 "Hg10 mi
11:50 PM
Tue, Aug 4
59 °FClear.7 mph55%30.07 "Hg10 mi
11:20 PM61 °FClear.8 mph52%30.07 "Hg10 mi
10:50 PM59 °FClear.5 mph55%30.07 "Hg10 mi
10:20 PM63 °FSunny.7 mph52%30.07 "Hg10 mi
9:50 PM64 °FPassing clouds.10 mph52%30.07 "HgN/A
9:20 PM64 °FSunny.10 mph52%30.07 "Hg10 mi
8:50 PM66 °FSunny.9 mph46%30.07 "Hg10 mi
8:20 PM68 °FSunny.13 mph43%30.04 "Hg10 mi
7:50 PM70 °FSunny.15 mph40%30.04 "Hg10 mi
7:20 PM70 °FPassing clouds.14 mph40%30.04 "HgN/A
6:50 PM72 °FSunny.14 mph36%30.04 "Hg10 mi
6:20 PM72 °FPassing clouds.15 mph38%30.01 "HgN/A
5:50 PM72 °FPassing clouds.15 mph44%30.01 "HgN/A
5:20 PM72 °FSunny.15 mph47%30.01 "Hg10 mi
4:50 PM70 °FPassing clouds.12 mph53%30.01 "HgN/A
4:20 PM70 °FPassing clouds.15 mph53%30.01 "HgN/A
3:50 PM68 °FPassing clouds.12 mph60%30.01 "HgN/A
3:20 PM68 °FPassing clouds.7 mph64%29.98 "HgN/A
2:50 PM66 °FPassing clouds.8 mph73%29.98 "HgN/A
2:20 PM64 °FPartly sunny.8 mph78%29.98 "HgN/A
1:50 PM64 °FPartly sunny.9 mph78%29.98 "HgN/A
1:20 PM63 °FPartly sunny.9 mph77%29.98 "HgN/A
12:50 PM61 °FPartly sunny.10 mph83%29.98 "HgN/A
12:20 PM61 °FLight rain. Partly sunny.9 mph88%29.98 "HgN/A
11:50 AM61 °FPartly sunny.12 mph83%29.95 "HgN/A
11:20 AM61 °FBroken clouds.14 mph88%29.95 "Hg5 mi
10:50 AM61 °FLight rain. Partly sunny.10 mph100%29.95 "Hg5 mi
10:20 AM61 °FLight rain. Broken clouds.10 mph88%29.92 "Hg6 mi
9:50 AM61 °FLight rain. Partly sunny.14 mph94%29.92 "Hg3 mi
9:20 AM63 °FLight rain. Partly sunny.9 mph88%29.92 "Hg4 mi
Weather by CustomWeather, © 2015

See weather overviewHow to use our weather pages